WetterOnline ( https://www.wetteronline.de )

Wetter aktuell Gomagoi

Aktuelles Wetter: Reschenpass (1461m)

6-stündlich | Neueste Meldungen
Ortszeit Temperatur Wetter
Di, 27.10. 13:00 4.8° C wolkig
Di, 27.10. 7:00 0.2° C bewölkt
Di, 27.10. 1:00 1.0° C leichter Schneeregen
Mo, 26.10. 19:00 2.2° C Regen
Mo, 26.10. 13:00 5.4° C Nebel
Mo, 26.10. 7:00 4.8° C bedeckt
Mo, 26.10. 1:00 5.8° C bedeckt
So, 25.10. 19:00 6.8° C wolkig
Ortszeit Temperatur Wetter
Di, 27.10. 14:00 3.2° C bedeckt
Di, 27.10. 13:55 3° C bewölkt
Di, 27.10. 13:00 4.8° C wolkig
Di, 27.10. 12:55 5° C leicht bewölkt
Di, 27.10. 12:00 3.0° C wolkig
Di, 27.10. 11:55 3° C leicht bewölkt
Di, 27.10. 11:00 2.2° C bedeckt
Di, 27.10. 10:55 2° C bewölkt
Di, 27.10. 10:00 2.2° C bewölkt
Ortszeit Relative Feuchte Sichtweite
Di, 27.10. 13:00 68% 20 km
Di, 27.10. 7:00 85% 10 km
Di, 27.10. 1:00 98% 3.0 km
Mo, 26.10. 19:00 98% 1.5 km
Mo, 26.10. 13:00 99% 0.6 km
Mo, 26.10. 7:00 99% 1.5 km
Mo, 26.10. 1:00 96% 10 km
So, 25.10. 19:00 83% 10 km
Ortszeit Relative Feuchte Sichtweite
Di, 27.10. 14:00 66% 10 km
Di, 27.10. 13:55 65% >10 km
Di, 27.10. 13:00 68% 20 km
Di, 27.10. 12:55 65% >10 km
Di, 27.10. 12:00 77% 15 km
Di, 27.10. 11:55 75% >10 km
Di, 27.10. 11:00 80% 15 km
Di, 27.10. 10:55 80% >10 km
Di, 27.10. 10:00 83% 15 km
Ortszeit Niederschlagsmenge Niederschlagsart
Di, 27.10. 13:00 0.0 l/m2 in 6 Std. -
Di, 27.10. 7:00 15 l/m2 in 12 Std. Schnee, Regen
Di, 27.10. 1:00 13 l/m2 in 6 Std. Schnee, Regen
Mo, 26.10. 19:00 14 l/m2 in 12 Std. Regen
Mo, 26.10. 13:00 0.6 l/m2 in 6 Std. Regen, Nebel
Mo, 26.10. 7:00 0.0 l/m2 in 12 Std. -
Mo, 26.10. 1:00 0.0 l/m2 in 6 Std. -
So, 25.10. 19:00 0.0 l/m2 in 12 Std. -
Ortszeit Niederschlagsmenge Niederschlagsart
Di, 27.10. 14:00 keine Meldung -
Di, 27.10. 13:55 keine Meldung -
Di, 27.10. 13:00 keine Meldung -
Di, 27.10. 12:55 keine Meldung -
Di, 27.10. 12:00 keine Meldung -
Di, 27.10. 11:55 keine Meldung -
Di, 27.10. 11:00 keine Meldung -
Di, 27.10. 10:55 keine Meldung -
Di, 27.10. 10:00 keine Meldung -
Ortszeit Stärke Spitze Richtung
km/h Bft. km/h Grad Sektor
Di, 27.10. 13:00 9 2 - 30° NO
Di, 27.10. 7:00 13 3 - 30° NO
Di, 27.10. 1:00 11 2 - 40° NO
Mo, 26.10. 19:00 13 3 - 30° NO
Mo, 26.10. 13:00 24 4 - 190° S
Mo, 26.10. 7:00 20 4 - 180° S
Mo, 26.10. 1:00 11 2 - 170° S
So, 25.10. 19:00 11 2 - 160° S
Ortszeit Stärke Spitze Richtung
km/h Bft. km/h Grad Sektor
Di, 27.10. 14:00 7 2 - 20° N
Di, 27.10. 13:55 7 2 - 20° N
Di, 27.10. 13:00 9 2 - 30° NO
Di, 27.10. 12:55 9 2 - 30° NO
Di, 27.10. 12:00 9 2 - 50° NO
Di, 27.10. 11:55 9 2 - 50° NO
Di, 27.10. 11:00 9 2 - 50° NO
Di, 27.10. 10:55 9 2 - 50° NO
Di, 27.10. 10:00 13 3 - 50° NO
Ortszeit Untergrenze Bedeckung Gattung
total tief tief mittel hoch
Di, 27.10. 13:00 450 m 6/8 6/8 Sc - -
Di, 27.10. 7:00 600 m 8/8 3/8 Cu Ac -
Di, 27.10. 1:00 150 m 8/8 8/8 St - -
Mo, 26.10. 19:00 240 m 8/8 8/8 St - -
Mo, 26.10. 13:00 60 m 8/8 8/8 St - -
Mo, 26.10. 7:00 60 m 8/8 8/8 St - -
Mo, 26.10. 1:00 300 m 8/8 8/8 St - -
So, 25.10. 19:00 450 m 7/8 7/8 Sc - -
Ortszeit Bedeckungsgrad in Achtel und Wolkenuntergrenze
Di, 27.10. 14:00 3(300m) 5(600m)
Di, 27.10. 13:55 3-4(300m) 5-7(600m)
Di, 27.10. 13:00 3(450m) 4(600m)
Di, 27.10. 12:55 3-4(450m) 3-4(600m)
Di, 27.10. 12:00 3(300m) 4(600m)
Di, 27.10. 11:55 3-4(300m) 3-4(600m)
Di, 27.10. 11:00 4(300m) 6(600m)
Di, 27.10. 10:55 3-4(300m) 5-7(600m)
Di, 27.10. 10:00 2(300m) 3(600m) 5(1800m)
Ortszeit Stationsdruck (hPa) Tendenz (hPa in 3 Std.)
Di, 27.10. 13:00 845 + 1,0
Di, 27.10. 7:00 843 + 2,1
Di, 27.10. 1:00 842 + 0,2
Mo, 26.10. 19:00 841 + 1,0
Mo, 26.10. 13:00 840 - 2,2
Mo, 26.10. 7:00 843 - 1,9
Mo, 26.10. 1:00 848 - 0,6
So, 25.10. 19:00 849 - 0,8
Ortszeit Stationsdruck (hPa) Tendenz (hPa in 3 Std.)
Di, 27.10. 14:00 845 - 0,2
Di, 27.10. 13:55 - keine Meldung
Di, 27.10. 13:00 845 + 1,0
Di, 27.10. 12:55 - keine Meldung
Di, 27.10. 12:00 845 + 2,1
Di, 27.10. 11:55 - keine Meldung
Di, 27.10. 11:00 845 + 2,4
Di, 27.10. 10:55 - keine Meldung
Di, 27.10. 10:00 844 + 1,3
Ortszeit Schneehöhe (cm)
Di, 27.10. 13:00 -
Di, 27.10. 7:00 0
Di, 27.10. 1:00 -
Mo, 26.10. 19:00 -
Mo, 26.10. 13:00 -
Mo, 26.10. 7:00 0
Mo, 26.10. 1:00 -
So, 25.10. 19:00 -
Ortszeit Schneehöhe (cm)
Di, 27.10. 14:00 -
Di, 27.10. 13:55 -
Di, 27.10. 13:00 -
Di, 27.10. 12:55 -
Di, 27.10. 12:00 -
Di, 27.10. 11:55 -
Di, 27.10. 11:00 -
Di, 27.10. 10:55 -
Di, 27.10. 10:00 -
Link zu dieser Seite / Seite empfehlen

Das Wetter in ...